TimePDT,TemperatureF,Dew PointF,Humidity,Sea Level PressureIn,VisibilityMPH,Wind Direction,Wind SpeedMPH,Gust SpeedMPH,PrecipitationIn,Events,Conditions,WindDirDegrees,DateUTC
12:15 AM,44.6,-9999,N/A,30.18,10.0,SSW,8.1,-,N/A,,Clear,200,2012-10-13 07:15:00
12:35 AM,46.4,-9999,N/A,30.18,10.0,SW,9.2,-,N/A,,Mostly Cloudy,230,2012-10-13 07:35:00
12:55 AM,46.4,-9999,N/A,30.19,10.0,South,4.6,-,N/A,,Overcast,180,2012-10-13 07:55:00
1:15 AM,46.4,-9999,N/A,30.19,10.0,SSW,9.2,-,N/A,,Scattered Clouds,200,2012-10-13 08:15:00
1:35 AM,46.4,-9999,N/A,30.20,10.0,SSW,5.8,-,N/A,,Clear,200,2012-10-13 08:35:00
1:55 AM,44.6,-9999,N/A,30.21,10.0,SSW,6.9,-,N/A,,Clear,210,2012-10-13 08:55:00
2:15 AM,42.8,-9999,N/A,30.21,10.0,SSW,4.6,-,N/A,,Clear,210,2012-10-13 09:15:00
3:35 AM,37.4,-9999,N/A,30.23,10.0,ESE,5.8,-,N/A,,Clear,120,2012-10-13 10:35:00
3:55 AM,39.2,-9999,N/A,30.22,10.0,Calm,Calm,-,N/A,,Clear,0,2012-10-13 10:55:00
4:15 AM,37.4,-9999,N/A,30.23,10.0,Calm,Calm,-,N/A,,Clear,0,2012-10-13 11:15:00
4:35 AM,37.4,-9999,N/A,30.24,10.0,Calm,Calm,-,N/A,,Clear,0,2012-10-13 11:35:00
4:55 AM,39.2,-9999,N/A,30.25,10.0,Calm,Calm,-,N/A,,Clear,0,2012-10-13 11:55:00
5:15 AM,39.2,-9999,N/A,30.25,10.0,South,5.8,-,N/A,,Clear,170,2012-10-13 12:15:00
5:55 AM,39.2,-9999,N/A,30.26,10.0,SSE,4.6,-,N/A,,Clear,150,2012-10-13 12:55:00
6:15 AM,37.4,-9999,N/A,30.27,10.0,South,3.5,-,N/A,,Clear,170,2012-10-13 13:15:00
6:35 AM,35.6,-9999,N/A,30.28,10.0,South,3.5,-,N/A,,Clear,170,2012-10-13 13:35:00
6:55 AM,33.8,-9999,N/A,30.30,10.0,Calm,Calm,-,N/A,,Clear,0,2012-10-13 13:55:00
7:15 AM,35.6,-9999,N/A,30.31,10.0,SW,4.6,-,N/A,,Clear,230,2012-10-13 14:15:00
7:55 AM,42.8,-9999,N/A,30.32,10.0,South,3.5,-,N/A,,Clear,170,2012-10-13 14:55:00
8:15 AM,44.6,-9999,N/A,30.33,10.0,Calm,Calm,-,N/A,,Clear,0,2012-10-13 15:15:00
9:15 AM,46.4,-9999,N/A,30.36,10.0,Calm,Calm,-,N/A,,Clear,0,2012-10-13 16:15:00
9:35 AM,48.2,-9999,N/A,30.36,10.0,Calm,Calm,-,N/A,,Clear,0,2012-10-13 16:35:00
9:55 AM,50.0,-9999,N/A,30.36,10.0,Calm,Calm,-,N/A,,Clear,0,2012-10-13 16:55:00
10:15 AM,50.0,-9999,N/A,30.36,10.0,Calm,Calm,-,N/A,,Clear,0,2012-10-13 17:15:00
10:35 AM,53.6,-9999,N/A,30.36,10.0,WSW,3.5,-,N/A,,Clear,240,2012-10-13 17:35:00
10:55 AM,55.4,-9999,N/A,30.36,10.0,Calm,Calm,-,N/A,,Clear,0,2012-10-13 17:55:00
11:15 AM,57.2,-9999,N/A,30.36,10.0,Calm,Calm,-,N/A,,Partly Cloudy,0,2012-10-13 18:15:00
11:35 AM,57.2,-9999,N/A,30.36,10.0,West,4.6,-,N/A,,Partly Cloudy,260,2012-10-13 18:35:00
11:55 AM,59.0,-9999,N/A,30.36,10.0,NNE,5.8,-,N/A,,Clear,20,2012-10-13 18:55:00
12:15 PM,59.0,-9999,N/A,30.36,10.0,Calm,Calm,-,N/A,,Clear,0,2012-10-13 19:15:00
12:35 PM,60.8,-9999,N/A,30.36,10.0,Calm,Calm,-,N/A,,Clear,0,2012-10-13 19:35:00
1:35 PM,64.4,-9999,N/A,30.34,10.0,WNW,4.6,-,N/A,,Clear,300,2012-10-13 20:35:00
1:55 PM,64.4,-9999,N/A,30.34,10.0,WNW,4.6,-,N/A,,Clear,300,2012-10-13 20:55:00
2:15 PM,64.4,-9999,N/A,30.33,10.0,North,8.1,-,N/A,,Scattered Clouds,10,2012-10-13 21:15:00
2:55 PM,64.4,-9999,N/A,30.33,10.0,North,10.4,-,N/A,,Clear,350,2012-10-13 21:55:00
3:35 PM,66.2,-9999,N/A,30.33,10.0,North,13.8,18.4,N/A,,Clear,350,2012-10-13 22:35:00
3:55 PM,66.2,-9999,N/A,30.33,10.0,NNE,9.2,-,N/A,,Clear,30,2012-10-13 22:55:00
4:15 PM,66.2,-9999,N/A,30.33,10.0,North,9.2,-,N/A,,Clear,360,2012-10-13 23:15:00
4:35 PM,66.2,-9999,N/A,30.32,10.0,North,12.7,-,N/A,,Clear,10,2012-10-13 23:35:00
4:55 PM,64.4,-9999,N/A,30.32,10.0,North,9.2,-,N/A,,Clear,10,2012-10-13 23:55:00
5:15 PM,64.4,-9999,N/A,30.32,10.0,North,9.2,-,N/A,,Clear,10,2012-10-14 00:15:00
5:35 PM,62.6,-9999,N/A,30.32,10.0,NNE,6.9,-,N/A,,Clear,30,2012-10-14 00:35:00
6:15 PM,55.4,-9999,N/A,30.34,10.0,Calm,Calm,-,N/A,,Clear,0,2012-10-14 01:15:00
7:35 PM,48.2,-9999,N/A,30.37,10.0,North,8.1,-,N/A,,Clear,350,2012-10-14 02:35:00
7:55 PM,46.4,-9999,N/A,30.39,10.0,ENE,4.6,-,N/A,,Clear,60,2012-10-14 02:55:00
8:15 PM,46.4,-9999,N/A,30.39,10.0,Calm,Calm,-,N/A,,Clear,0,2012-10-14 03:15:00
8:55 PM,42.8,-9999,N/A,30.41,10.0,Calm,Calm,-,N/A,,Clear,0,2012-10-14 03:55:00
9:35 PM,41.0,-9999,N/A,30.41,10.0,South,6.9,-,N/A,,Clear,170,2012-10-14 04:35:00
10:35 PM,37.4,-9999,N/A,30.41,10.0,SSW,3.5,-,N/A,,Clear,210,2012-10-14 05:35:00
10:55 PM,35.6,-9999,N/A,30.41,10.0,SE,4.6,-,N/A,,Clear,140,2012-10-14 05:55:00
11:15 PM,37.4,-9999,N/A,30.41,10.0,Calm,Calm,-,N/A,,Clear,0,2012-10-14 06:15:00
11:35 PM,37.4,-9999,N/A,30.40,10.0,Calm,Calm,-,N/A,,Clear,0,2012-10-14 06:35:00
11:55 PM,35.6,-9999,N/A,30.40,10.0,SSE,5.8,-,N/A,,Clear,150,2012-10-14 06:55:00